EHI
0 0 0 0 0 0 0 0 0 0 0 0 0 0 0 0 0 0 0 11 23 16 3 0 0 0 0 0 0 1 2 2 9 21 24 16 9 4 1 0 0 0 0 0 0 0 0 0 0
0 0 0 0 0 0 0 0 0 0 0 0 0 0 0 0 0 0 1 10 19 13 3 0 0 0 0 0 0 1 2 2 5 9 10 7 4 2 0 0 0 0 0 0 0 0 0 0 0
0 0 0 0 0 0 0 0 0 0 0 0 0 0 0 0 0 0 1 6 11 9 3 0 0 0 0 0 0 0 2 3 2 1 0 1 1 1 0 0 0 0 1 1 0 0 0 0 0
0 0 0 0 0 0 0 0 0 0 0 0 0 0 0 0 0 0 1 3 5 5 4 3 2 2 2 2 1 1 3 4 3 2 2 2 2 1 0 0 1 2 3 3 1 0 0 0 0
0 0 0 0 0 0 0 0 0 0 0 0 0 0 0 0 0 0 1 3 3 5 8 13 17 17 13 8 3 2 3 4 3 3 3 2 1 0 0 1 3 6 8 6 3 1 0 0 0
0 0 0 0 0 0 0 0 0 0 0 0 0 0 0 0 1 2 3 4 4 5 11 20 33 41 37 22 9 5 5 4 3 3 2 1 0 0 0 1 3 7 9 6 3 1 0 0 0
0 0 0 0 0 0 0 0 0 0 0 0 0 0 1 2 5 11 16 15 11 7 11 23 36 46 42 26 13 13 20 22 16 8 2 0 0 0 0 0 1 3 4 2 1 0 0 0 0
0 0 0 0 0 0 0 0 0 0 0 0 0 0 3 8 14 28 40 37 26 15 15 26 30 25 18 12 9 16 29 34 26 14 5 1 0 0 0 0 0 0 0 0 0 0 0 0 0
0 0 0 0 0 0 0 0 0 0 0 0 0 0 6 12 20 37 53 52 39 24 19 22 16 6 1 0 2 8 15 18 15 10 5 1 0 0 0 0 0 0 0 0 0 0 0 0 0
0 0 0 0 0 0 0 0 0 0 0 0 0 2 6 10 14 26 44 51 40 22 12 8 4 1 0 0 0 0 0 0 0 1 2 1 0 0 0 0 0 0 0 0 0 0 0 0 0
0 0 0 0 0 0 0 0 0 0 0 0 0 2 4 4 5 12 31 42 29 11 3 1 0 0 0 0 0 0 0 0 0 0 0 0 0 0 0 0 0 0 0 0 0 0 0 0 0
0 0 0 0 0 0 0 0 0 0 0 0 0 1 3 2 2 8 24 30 17 3 0 0 0 0 0 0 0 0 0 0 0 0 0 0 0 0 0 0 0 0 0 0 0 0 0 0 0
0 0 0 0 0 0 0 0 0 0 0 0 0 1 2 2 2 6 15 17 8 1 0 0 0 0 0 0 0 0 0 0 0 0 0 0 0 0 0 0 0 0 0 0 0 0 0 0 0
0 0 0 0 0 0 0 0 0 0 0 0 0 1 3 3 2 3 5 6 3 1 0 0 0 0 0 0 0 0 0 0 0 0 0 0 0 0 0 0 0 0 0 0 0 0 0 0 0
0 0 0 0 0 0 0 0 0 0 0 0 0 1 3 4 3 1 1 2 3 3 3 2 1 1 2 2 1 0 0 0 0 0 0 0 0 0 0 0 0 0 0 0 0 0 0 0 0
0 0 0 0 0 0 0 0 0 0 0 0 0 0 2 3 2 1 3 9 14 16 17 18 16 12 9 5 2 0 0 0 0 0 0 0 0 0 0 0 0 0 0 0 0 0 0 0 0
0 0 0 0 0 0 0 0 0 0 0 0 0 0 0 1 1 1 6 20 36 44 47 52 50 35 18 6 2 0 0 0 0 0 0 0 0 0 0 0 0 0 0 0 1 2 2 1 0
0 0 0 0 0 0 0 0 0 0 0 0 0 0 0 0 0 1 8 27 55 73 80 81 73 51 23 6 1 0 0 0 0 0 0 0 0 0 0 0 0 0 0 0 2 4 4 2 0
0 0 0 0 0 0 0 0 0 0 0 0 0 0 0 0 0 1 7 27 57 81 88 83 69 47 23 6 1 0 0 0 0 0 0 0 0 0 0 0 0 0 1 1 1 2 2 1 0
0 0 0 0 0 0 0 0 0 0 0 0 0 0 0 0 0 1 4 18 45 67 74 70 59 40 20 6 1 0 0 0 0 0 0 0 0 0 0 0 0 1 2 1 0 0 0 0 0
0 0 0 0 0 0 0 0 0 0 0 0 0 0 0 0 0 0 1 9 28 46 56 62 60 43 22 6 1 0 0 0 0 0 0 0 0 0 0 0 0 0 1 0 0 0 0 0 0
0 0 0 0 0 0 0 0 0 0 0 0 0 0 0 0 0 0 1 4 13 23 36 50 54 44 25 9 2 1 0 0 0 0 0 0 0 0 0 0 0 0 0 0 0 0 0 0 0
0 0 0 0 0 0 0 0 0 0 0 0 0 0 0 0 0 0 0 1 3 7 15 25 31 29 19 9 3 2 0 0 0 0 0 0 0 0 0 0 0 0 0 0 0 0 0 0 0
0 0 0 0 0 0 0 0 0 0 0 0 0 0 0 0 0 0 0 0 0 1 2 5 8 9 7 4 2 1 0 0 0 0 0 0 0 0 0 0 0 0 0 0 0 0 0 0 0
0 0 0 0 0 0 0 0 0 0 0 0 0 0 0 0 0 0 0 0 0 0 0 0 1 1 1 0 0 0 0 0 0 0 0 0 0 0 0 0 0 0 0 0 0 0 0 0 0
0 0 0 0 0 0 0 0 0 0 0 0 0 0 0 0 0 0 0 0 0 0 0 0 0 0 0 0 0 0 0 0 0 0 0 0 0 0 0 0 0 0 0 0 0 0 0 0 0
0 0 0 0 0 0 0 0 0 0 0 0 0 0 0 0 0 0 0 0 0 0 0 0 0 0 0 0 0 0 0 0 0 0 0 0 0 0 0 0 0 0 0 0 0 0 0 0 0
0 0 0 0 0 0 0 0 0 0 0 0 0 0 0 0 0 0 0 0 0 0 0 0 0 0 0 0 0 0 0 0 0 0 0 0 0 0 0 0 0 0 0 0 0 0 0 0 0
0 0 0 0 0 0 0 0 0 0 0 0 0 0 0 0 0 0 0 0 0 0 0 0 0 0 0 0 0 0 0 0 0 0 0 0 0 0 0 0 0 0 0 0 0 0 0 0 0
0 0 0 0 0 0 0 0 0 0 0 0 0 0 0 0 0 0 0 0 0 0 0 0 0 0 0 0 0 0 0 0 0 0 0 0 0 0 0 0 0 0 0 0 0 0 0 0 0
Wind_Speed
10 8 7 6 8 7 6 5 3 5 4 3 3 4 6 7 6 6 6 5 7 10 12 12 9 6 8 9 10 10 9 10 12 12 12 12 11 10 9 7 6 5 5 5 5 5 6 6 6
6 6 7 6 7 6 7 5 4 4 6 3 4 2 1 5 6 6 6 8 10 11 10 10 11 7 9 9 9 10 9 9 10 10 10 10 9 8 8 7 6 4 4 3 3 3 4 5 5
5 7 7 5 5 2 8 5 2 5 4 3 4 1 3 5 5 4 7 11 11 11 10 11 9 10 10 9 7 8 10 9 9 9 9 9 8 6 6 6 5 3 2 2 3 3 4 5 6
6 7 6 7 4 3 5 4 3 6 5 4 1 2 5 6 4 6 12 13 13 13 11 12 9 11 12 11 9 8 9 9 8 7 8 10 9 8 7 6 7 7 5 5 6 6 6 7 8
7 6 7 5 4 4 2 1 2 5 4 3 1 2 6 7 8 13 14 14 14 13 12 13 9 10 12 12 9 9 8 8 8 8 9 9 7 6 4 4 6 8 8 10 12 12 12 13 13
6 6 6 4 7 3 3 3 4 3 3 2 1 1 9 10 11 14 15 13 13 13 13 14 12 13 14 12 10 9 8 7 8 8 9 8 6 3 3 5 7 10 12 14 16 16 15 14 13
6 5 2 2 5 7 5 5 6 4 3 2 1 2 9 11 11 13 14 12 12 11 11 12 14 14 14 12 10 10 9 8 8 7 7 7 6 6 6 8 11 12 14 14 14 14 13 12 10
6 5 3 5 7 9 8 8 5 5 2 3 2 1 8 13 12 13 13 11 11 11 10 11 10 11 13 13 12 12 11 11 10 8 7 7 7 8 8 9 12 12 12 12 12 11 10 9 8
6 6 3 4 4 8 10 9 6 3 4 5 3 2 6 15 14 13 13 11 10 9 9 10 11 8 9 11 11 12 11 10 9 8 7 3 3 6 6 10 11 12 12 12 11 9 7 6 7
7 2 5 3 3 3 11 8 8 8 8 9 7 4 9 14 13 12 11 10 10 11 10 10 9 8 8 7 7 6 6 6 5 6 5 3 4 3 6 10 10 10 10 11 9 7 6 3 3
5 3 5 3 3 2 9 8 8 8 6 7 7 8 12 14 12 9 8 8 9 11 9 9 8 5 6 5 4 4 4 4 5 6 5 4 3 4 4 5 6 6 6 6 6 5 3 4 4
4 2 5 5 4 3 6 8 8 9 2 3 3 7 12 13 11 9 10 10 10 10 9 8 8 6 4 4 4 3 3 2 2 4 1 3 2 3 4 3 4 4 4 3 2 2 4 5 5
6 1 2 3 3 3 5 8 8 9 3 1 2 8 12 12 10 9 9 10 10 10 9 8 7 7 5 4 3 3 3 3 4 3 4 2 3 4 4 3 1 2 3 2 2 3 4 5 6
2 3 3 3 2 3 7 7 8 10 5 6 6 10 12 12 10 9 10 10 10 11 10 9 8 7 6 5 4 3 4 4 4 4 5 3 3 3 3 3 1 1 1 3 4 4 5 6 6
4 9 9 7 6 4 6 10 11 9 6 9 9 10 11 12 11 10 10 10 9 9 8 8 7 7 6 6 6 5 5 4 4 4 4 3 3 3 1 2 1 1 2 3 4 6 7 7 8
10 12 15 11 7 5 9 12 10 5 8 10 10 10 11 12 12 10 9 8 7 7 8 8 6 7 6 6 5 4 4 4 4 4 4 4 3 2 1 1 1 2 5 5 5 7 8 9 10
14 15 13 8 6 6 9 10 3 4 8 11 10 10 10 10 10 9 9 8 8 7 7 8 7 6 6 5 4 5 3 3 3 3 3 4 3 3 3 2 2 5 6 6 7 7 8 10 11
9 9 8 8 6 8 10 5 6 5 5 9 7 5 5 5 4 3 5 5 5 7 7 10 9 9 6 3 4 4 4 3 3 3 3 3 3 3 4 4 2 6 6 6 6 7 8 9 10
4 6 7 5 3 7 5 4 9 9 6 2 2 4 5 5 6 5 3 2 3 6 9 10 10 8 5 2 4 4 3 3 3 3 3 2 1 2 3 5 3 5 6 6 8 8 10 10 8
9 10 11 7 4 5 5 9 11 12 12 10 9 8 9 9 7 6 3 1 3 5 7 9 9 8 5 1 1 1 2 2 2 2 2 2 4 5 4 5 6 6 6 8 7 8 10 11 10
11 12 10 8 7 7 8 10 10 12 13 13 12 12 12 11 10 9 7 6 7 7 7 7 9 8 6 3 2 4 3 3 2 1 2 4 5 5 6 7 8 8 10 9 10 12 13 13 13
12 9 7 8 10 7 7 6 11 9 12 14 14 13 13 12 11 11 12 11 11 10 10 12 12 11 9 6 6 5 4 4 5 4 4 5 5 6 7 8 9 10 11 12 13 14 13 15 15
5 6 7 8 9 7 8 10 9 6 7 11 13 13 13 14 14 14 15 14 13 13 13 13 14 14 13 11 9 7 7 6 5 6 6 8 7 8 9 10 10 11 12 14 14 15 16 14 16
8 9 7 8 10 12 8 9 5 6 6 7 11 12 12 13 14 15 15 14 14 14 13 13 14 14 13 12 12 11 10 9 8 9 9 9 9 10 12 13 12 13 13 14 14 15 17 16 17
11 11 9 11 11 10 6 8 6 8 5 7 10 10 10 11 12 12 13 13 13 13 13 12 13 12 12 11 10 9 8 7 7 9 10 11 11 11 12 13 13 14 14 15 15 16 16 17 17
15 16 13 11 11 7 9 8 9 9 8 9 9 10 10 10 11 12 12 11 12 12 11 11 11 10 9 8 7 7 8 8 8 9 11 11 11 12 14 14 15 16 17 16 15 15 16 15 15
16 16 15 13 13 12 8 7 9 9 10 10 10 10 9 9 10 10 10 10 11 11 11 10 9 8 8 8 8 8 9 9 10 11 11 11 11 13 15 15 16 16 16 16 15 12 14 14 14
12 12 8 13 14 13 12 13 9 16 12 11 10 10 9 8 9 9 9 10 9 9 9 9 9 9 9 10 9 9 10 11 11 12 13 13 13 13 14 15 15 15 14 14 13 12 12 13 13
10 12 13 12 12 13 13 4 7 14 13 11 10 9 8 7 8 8 8 8 8 8 8 8 9 10 10 11 11 11 11 12 13 13 13 12 12 12 12 12 12 12 12 12 11 12 12 13 13
11 14 14 12 11 12 13 4 6 10 11 11 11 9 7 6 7 7 8 8 8 8 9 9 10 11 12 12 12 12 12 13 13 13 12 12 11 11 11 11 11 10 10 11 11 12 11 12 13
Wind_Direction
189 200 224 236 236 233 217 147 173 142 114 62 6 26 349 10 358 38 79 123 141 139 137 134 112 125 137 133 127 124 124 124 123 122 123 122 120 118 114 111 111 107 101 91 81 78 79 70 59
189 207 225 236 247 209 171 149 167 81 60 107 134 24 356 80 54 74 116 136 144 144 143 119 114 124 127 128 127 128 128 125 123 122 122 116 112 111 113 112 114 117 118 116 101 78 59 48 37
204 234 243 236 242 205 124 121 115 93 111 165 150 111 16 52 73 88 129 147 143 138 124 111 129 128 120 116 122 129 129 127 126 125 120 108 97 85 85 93 89 79 60 43 33 22 19 8 360
211 214 230 240 185 87 41 82 120 138 142 145 133 105 73 58 70 112 142 147 136 129 123 122 139 132 126 125 130 136 133 129 127 123 113 102 93 78 62 52 49 49 37 23 24 20 17 10 4
231 242 230 206 162 115 61 59 156 143 131 144 290 47 93 90 105 126 143 138 130 127 126 118 119 127 122 121 131 130 124 121 120 119 109 104 102 101 94 65 52 57 53 51 50 47 46 44 42
228 241 238 181 154 169 181 199 201 181 141 129 277 18 94 121 128 142 145 137 131 131 123 115 108 108 112 118 123 117 113 115 119 121 120 120 123 119 88 62 61 68 69 68 66 68 65 56 50
265 261 273 175 163 181 172 183 208 193 181 142 2 83 115 134 135 144 143 140 133 130 130 128 121 111 108 110 112 110 110 112 116 119 122 124 127 121 99 79 77 76 78 78 80 82 76 71 68
284 265 188 162 165 140 147 173 200 226 208 95 214 307 120 138 149 141 137 136 133 134 125 120 112 124 132 121 110 104 96 92 94 99 105 111 124 111 97 100 95 92 91 94 99 102 100 96 87
260 248 135 119 142 133 158 172 160 190 183 176 184 359 79 139 157 151 144 144 133 127 125 118 114 111 107 111 122 117 108 102 119 109 105 146 120 105 105 85 97 97 96 100 104 109 120 141 122
246 253 63 30 346 163 173 182 159 182 187 189 185 147 141 156 167 167 158 150 142 135 125 116 116 128 118 112 119 116 116 115 108 100 111 111 93 80 92 96 90 98 108 116 116 138 162 219 80
245 332 16 35 19 265 185 191 187 210 201 205 200 166 165 169 177 182 158 147 140 130 123 119 112 102 105 111 104 96 97 109 124 109 112 108 128 134 129 128 132 130 154 138 142 171 59 42 30
252 3 352 353 350 257 205 192 206 234 295 34 232 172 173 176 180 180 160 157 149 142 135 126 127 127 107 91 101 106 96 94 74 95 98 126 120 124 113 123 117 135 110 80 70 63 44 5 0
232 188 359 329 271 274 231 217 230 241 221 217 193 179 176 173 176 173 156 159 157 152 150 138 138 133 130 111 94 86 82 83 96 92 82 78 127 124 127 110 79 85 88 107 33 9 350 321 319
239 273 258 234 245 230 238 225 240 250 219 212 195 182 178 173 178 169 166 169 167 161 159 147 153 146 142 127 113 106 104 103 98 85 82 67 90 103 136 146 122 73 17 8 318 323 307 303 308
257 259 243 224 224 213 243 233 237 252 211 215 202 186 182 180 182 185 179 177 170 162 155 155 154 145 141 127 118 117 116 121 104 95 97 92 100 101 130 114 176 40 293 272 277 299 290 287 293
241 251 249 224 214 198 239 256 249 233 221 224 209 190 191 191 192 193 188 177 167 163 157 162 154 142 122 99 101 103 101 115 113 117 119 115 110 141 212 209 236 282 279 281 288 283 292 293 290
232 241 247 215 200 211 237 268 1 6 249 238 220 202 203 197 204 198 208 187 172 170 167 149 137 126 106 104 111 108 116 120 138 148 149 148 171 200 244 260 284 271 281 287 291 299 299 297 295
229 231 225 231 179 225 239 275 8 357 274 242 233 221 220 234 212 234 242 227 168 163 144 130 127 119 120 145 150 141 132 149 155 148 140 166 181 216 269 260 270 289 290 294 302 303 291 290 289
244 243 237 225 172 232 215 82 51 41 45 54 30 14 358 349 20 2 309 233 175 151 140 132 125 124 131 217 212 171 158 159 158 144 137 164 278 308 305 307 315 305 309 316 307 306 297 290 300
219 228 233 205 171 227 144 109 85 68 65 54 48 39 27 16 29 33 27 86 136 126 123 124 119 118 123 208 293 76 112 155 121 119 95 7 359 345 332 348 324 333 318 297 302 304 301 301 297
223 236 237 199 167 191 181 142 112 93 78 67 57 47 43 36 39 51 59 72 88 95 101 100 97 98 93 118 132 124 141 172 164 59 28 10 355 352 350 344 337 331 313 310 314 299 293 299 299
225 215 229 207 213 199 235 223 123 113 84 62 54 49 46 49 54 61 69 72 76 79 79 80 82 81 75 71 62 55 33 31 27 358 7 342 341 342 340 338 331 320 311 306 295 301 303 292 288
224 158 198 215 234 246 218 260 135 140 91 64 57 54 56 59 64 68 70 75 78 80 80 77 74 68 62 57 54 43 37 26 17 355 359 332 331 328 327 326 321 314 304 303 303 297 290 289 286
159 168 184 222 236 241 228 256 177 85 57 77 75 67 66 72 72 73 74 72 71 70 70 69 66 63 59 55 52 45 39 22 5 348 339 329 322 320 319 321 316 308 303 303 299 296 290 286 286
200 202 206 218 223 234 178 239 83 81 77 90 94 89 89 87 79 72 68 67 65 63 63 65 66 64 58 53 46 36 18 353 347 340 333 323 318 317 322 321 313 305 303 300 296 291 288 286 283
211 224 233 239 244 219 174 229 102 104 104 102 106 107 101 88 76 69 65 64 65 64 61 60 61 57 48 41 28 17 359 346 344 341 325 316 313 317 318 308 304 302 298 294 293 291 289 286 285
219 228 246 259 255 264 217 145 123 137 133 130 125 118 103 86 74 68 65 61 59 58 53 47 43 37 25 14 1 354 349 340 330 318 306 312 316 310 312 310 303 300 298 296 295 289 292 292 288
256 233 224 243 244 244 236 211 191 167 160 149 139 124 109 93 76 63 56 51 47 45 43 33 24 12 1 351 345 337 332 324 317 311 314 312 313 314 310 307 309 310 309 307 304 300 298 297 292
196 209 227 238 248 247 249 205 47 155 156 152 138 120 105 85 67 51 42 39 36 27 19 11 4 355 347 340 335 328 323 319 315 311 315 319 316 315 314 318 318 316 313 312 308 304 303 301 300
237 225 219 231 231 246 267 105 92 131 147 149 136 122 97 65 46 43 32 23 18 15 8 2 353 346 339 333 326 322 319 318 318 320 323 322 320 318 315 313 319 322 318 315 312 307 308 306 304